QPF
0.00 0.00 0.00 0.00 0.01 0.02 0.02 0.02 0.03 0.03 0.03 0.03 0.03 0.03 0.03 0.03 0.03 0.02 0.02 0.01 0.01 0.02 0.02 0.02 0.02 0.02 0.02 0.02 0.02 0.01 0.01 0.01 0.01 0.01 0.01 0.01 0.01 0.01 0.01 0.01 0.01 0.01 0.01
0.00 0.00 0.00 0.01 0.01 0.02 0.03 0.03 0.03 0.03 0.03 0.03 0.04 0.04 0.03 0.03 0.03 0.03 0.02 0.02 0.02 0.02 0.02 0.02 0.02 0.01 0.02 0.02 0.02 0.01 0.01 0.01 0.01 0.01 0.01 0.01 0.01 0.01 0.01 0.01 0.01 0.01 0.01
0.00 0.00 0.00 0.00 0.01 0.02 0.03 0.03 0.03 0.03 0.03 0.03 0.05 0.05 0.04 0.04 0.03 0.03 0.02 0.02 0.02 0.03 0.03 0.02 0.03 0.02 0.01 0.01 0.01 0.01 0.01 0.01 0.01 0.01 0.01 0.01 0.01 0.01 0.01 0.01 0.01 0.01 0.01
0.00 0.00 0.00 0.00 0.01 0.02 0.02 0.03 0.03 0.02 0.02 0.02 0.03 0.04 0.05 0.05 0.04 0.03 0.03 0.03 0.03 0.03 0.04 0.03 0.03 0.02 0.01 0.01 0.01 0.01 0.01 0.01 0.00 0.00 0.01 0.01 0.01 0.01 0.01 0.01 0.01 0.01 0.01
0.00 0.00 0.00 0.00 0.01 0.01 0.02 0.02 0.02 0.02 0.02 0.02 0.02 0.03 0.04 0.05 0.05 0.04 0.04 0.03 0.03 0.03 0.04 0.04 0.04 0.03 0.02 0.01 0.01 0.01 0.01 0.00 0.00 0.00 0.01 0.01 0.01 0.02 0.01 0.01 0.01 0.01 0.01
0.00 0.00 0.00 0.00 0.01 0.02 0.02 0.02 0.02 0.02 0.03 0.02 0.02 0.03 0.04 0.04 0.04 0.05 0.04 0.04 0.03 0.03 0.03 0.04 0.06 0.04 0.03 0.02 0.02 0.02 0.01 0.01 0.00 0.00 0.01 0.01 0.02 0.02 0.01 0.01 0.02 0.01 0.01
0.00 0.00 0.00 0.00 0.01 0.02 0.03 0.03 0.03 0.03 0.03 0.03 0.03 0.03 0.04 0.04 0.04 0.04 0.04 0.04 0.03 0.03 0.02 0.03 0.06 0.06 0.04 0.03 0.02 0.01 0.01 0.01 0.00 0.00 0.01 0.01 0.02 0.01 0.01 0.01 0.01 0.02 0.01
0.00 0.00 0.00 0.00 0.01 0.02 0.03 0.04 0.03 0.04 0.04 0.04 0.04 0.04 0.04 0.04 0.04 0.05 0.05 0.05 0.04 0.03 0.02 0.03 0.04 0.08 0.06 0.03 0.02 0.02 0.01 0.01 0.00 0.00 0.01 0.01 0.01 0.01 0.01 0.01 0.01 0.01 0.02
0.00 0.00 0.00 0.00 0.01 0.03 0.04 0.04 0.04 0.04 0.05 0.04 0.04 0.04 0.04 0.05 0.05 0.06 0.07 0.06 0.05 0.04 0.03 0.03 0.03 0.06 0.08 0.04 0.02 0.01 0.01 0.01 0.00 0.00 0.01 0.01 0.01 0.01 0.01 0.01 0.01 0.01 0.01
0.01 0.01 0.01 0.00 0.01 0.02 0.04 0.04 0.05 0.05 0.06 0.05 0.04 0.04 0.04 0.05 0.05 0.06 0.08 0.08 0.06 0.05 0.05 0.04 0.04 0.04 0.06 0.05 0.03 0.01 0.01 0.01 0.00 0.01 0.01 0.00 0.01 0.01 0.01 0.01 0.01 0.01 0.01
0.01 0.01 0.02 0.01 0.01 0.02 0.03 0.04 0.05 0.05 0.06 0.06 0.05 0.03 0.04 0.04 0.05 0.05 0.06 0.06 0.06 0.06 0.06 0.05 0.04 0.04 0.05 0.06 0.03 0.01 0.01 0.01 0.00 0.01 0.01 0.01 0.01 0.01 0.01 0.01 0.01 0.01 0.01
0.02 0.03 0.04 0.04 0.02 0.02 0.03 0.04 0.06 0.06 0.07 0.07 0.05 0.04 0.05 0.05 0.05 0.05 0.06 0.07 0.07 0.07 0.06 0.05 0.04 0.04 0.05 0.05 0.04 0.02 0.01 0.01 0.01 0.01 0.01 0.01 0.01 0.01 0.01 0.01 0.01 0.01 0.01
0.03 0.04 0.05 0.06 0.04 0.04 0.04 0.05 0.08 0.08 0.08 0.07 0.06 0.05 0.06 0.05 0.06 0.07 0.07 0.07 0.07 0.08 0.07 0.07 0.05 0.03 0.04 0.06 0.05 0.03 0.01 0.01 0.01 0.01 0.01 0.01 0.01 0.01 0.01 0.01 0.01 0.01 0.01
0.02 0.03 0.04 0.05 0.05 0.04 0.05 0.06 0.09 0.11 0.10 0.09 0.07 0.06 0.06 0.06 0.06 0.06 0.06 0.06 0.06 0.07 0.08 0.08 0.06 0.04 0.03 0.04 0.06 0.05 0.03 0.01 0.01 0.01 0.01 0.01 0.01 0.01 0.01 0.02 0.02 0.01 0.01
0.01 0.01 0.02 0.03 0.04 0.03 0.04 0.06 0.09 0.13 0.12 0.12 0.12 0.09 0.06 0.05 0.06 0.06 0.06 0.07 0.06 0.06 0.07 0.09 0.08 0.05 0.03 0.03 0.04 0.06 0.05 0.03 0.01 0.01 0.01 0.01 0.00 0.01 0.01 0.01 0.02 0.02 0.02
0.01 0.01 0.02 0.04 0.04 0.03 0.03 0.05 0.07 0.11 0.11 0.12 0.13 0.09 0.07 0.05 0.06 0.08 0.09 0.09 0.08 0.06 0.06 0.08 0.09 0.07 0.05 0.03 0.03 0.04 0.07 0.06 0.03 0.02 0.02 0.01 0.01 0.01 0.01 0.01 0.02 0.02 0.03
0.02 0.02 0.02 0.04 0.04 0.04 0.04 0.05 0.07 0.11 0.11 0.10 0.12 0.10 0.07 0.06 0.05 0.07 0.10 0.12 0.11 0.09 0.08 0.08 0.09 0.09 0.07 0.05 0.04 0.04 0.06 0.09 0.07 0.05 0.03 0.02 0.02 0.01 0.00 0.01 0.02 0.03 0.03
0.03 0.04 0.04 0.05 0.05 0.05 0.04 0.05 0.07 0.11 0.12 0.10 0.10 0.11 0.07 0.06 0.06 0.06 0.07 0.10 0.12 0.12 0.12 0.11 0.09 0.10 0.08 0.06 0.06 0.05 0.05 0.07 0.11 0.09 0.07 0.04 0.02 0.01 0.00 0.00 0.01 0.02 0.03
0.04 0.05 0.06 0.07 0.07 0.07 0.07 0.07 0.07 0.10 0.13 0.10 0.08 0.10 0.08 0.06 0.05 0.05 0.05 0.07 0.08 0.09 0.10 0.11 0.10 0.11 0.10 0.08 0.07 0.06 0.05 0.06 0.09 0.11 0.10 0.06 0.03 0.02 0.01 0.01 0.00 0.01 0.02
0.04 0.04 0.05 0.07 0.07 0.09 0.10 0.08 0.09 0.09 0.13 0.11 0.07 0.09 0.09 0.05 0.05 0.05 0.05 0.07 0.08 0.11 0.12 0.13 0.13 0.13 0.14 0.12 0.09 0.07 0.06 0.05 0.06 0.09 0.09 0.08 0.05 0.02 0.02 0.01 0.01 0.01 0.01
0.03 0.04 0.05 0.06 0.06 0.08 0.10 0.09 0.09 0.11 0.14 0.12 0.09 0.09 0.08 0.07 0.05 0.06 0.05 0.06 0.07 0.09 0.12 0.17 0.19 0.19 0.19 0.18 0.14 0.11 0.06 0.04 0.04 0.06 0.08 0.09 0.07 0.04 0.02 0.01 0.01 0.00 0.00
0.03 0.03 0.04 0.06 0.05 0.04 0.06 0.08 0.07 0.09 0.13 0.14 0.10 0.10 0.09 0.07 0.05 0.05 0.05 0.03 0.04 0.06 0.07 0.10 0.15 0.18 0.19 0.19 0.18 0.14 0.10 0.07 0.05 0.05 0.06 0.08 0.08 0.07 0.03 0.02 0.01 0.01 0.00
0.03 0.03 0.04 0.04 0.04 0.04 0.04 0.07 0.07 0.08 0.10 0.15 0.14 0.11 0.10 0.07 0.06 0.05 0.04 0.03 0.03 0.04 0.05 0.06 0.08 0.14 0.17 0.16 0.14 0.12 0.10 0.07 0.05 0.05 0.06 0.06 0.07 0.07 0.06 0.03 0.02 0.01 0.00
0.04 0.06 0.06 0.05 0.05 0.05 0.04 0.07 0.07 0.07 0.09 0.14 0.16 0.14 0.11 0.10 0.08 0.05 0.05 0.03 0.02 0.03 0.04 0.05 0.06 0.08 0.14 0.15 0.13 0.09 0.06 0.04 0.04 0.05 0.06 0.07 0.07 0.06 0.06 0.04 0.03 0.02 0.01
0.05 0.08 0.09 0.08 0.07 0.08 0.06 0.06 0.08 0.08 0.09 0.11 0.16 0.16 0.11 0.10 0.08 0.07 0.07 0.05 0.03 0.03 0.04 0.05 0.06 0.06 0.10 0.14 0.14 0.12 0.08 0.05 0.03 0.04 0.04 0.05 0.07 0.06 0.05 0.04 0.03 0.02 0.02
0.07 0.08 0.08 0.09 0.10 0.12 0.09 0.06 0.09 0.10 0.09 0.08 0.12 0.16 0.15 0.10 0.08 0.08 0.08 0.06 0.06 0.05 0.05 0.05 0.05 0.06 0.07 0.10 0.12 0.12 0.10 0.09 0.06 0.04 0.04 0.03 0.05 0.05 0.05 0.05 0.05 0.03 0.02
MSLP
1011.97 1011.97 1012.09 1012.36 1012.75 1013.18 1013.59 1013.92 1014.11 1014.15 1014.07 1013.93 1013.79 1013.72 1013.75 1013.88 1014.09 1014.32 1014.54 1014.71 1014.83 1014.89 1014.93 1014.96 1015.01 1015.08 1015.15 1015.20 1015.21 1015.16 1015.05 1014.89 1014.70 1014.52 1014.36 1014.25 1014.18 1014.12 1014.08 1014.02 1013.93 1013.82 1013.69
1011.82 1011.84 1012.00 1012.31 1012.71 1013.16 1013.58 1013.89 1014.07 1014.10 1014.03 1013.91 1013.81 1013.78 1013.85 1014.02 1014.24 1014.49 1014.70 1014.85 1014.94 1014.99 1015.01 1015.05 1015.11 1015.21 1015.31 1015.40 1015.44 1015.41 1015.31 1015.15 1014.94 1014.74 1014.56 1014.43 1014.33 1014.27 1014.22 1014.16 1014.08 1013.98 1013.87
1011.61 1011.65 1011.83 1012.15 1012.57 1013.03 1013.44 1013.75 1013.93 1013.98 1013.93 1013.85 1013.80 1013.82 1013.93 1014.12 1014.35 1014.58 1014.76 1014.88 1014.94 1014.96 1014.97 1015.02 1015.10 1015.23 1015.38 1015.51 1015.59 1015.59 1015.50 1015.35 1015.14 1014.93 1014.74 1014.59 1014.49 1014.42 1014.36 1014.31 1014.24 1014.16 1014.07
1011.34 1011.39 1011.57 1011.90 1012.32 1012.78 1013.19 1013.50 1013.70 1013.77 1013.76 1013.73 1013.73 1013.79 1013.94 1014.13 1014.35 1014.55 1014.70 1014.77 1014.79 1014.79 1014.80 1014.86 1014.97 1015.14 1015.34 1015.51 1015.63 1015.67 1015.62 1015.49 1015.30 1015.10 1014.91 1014.76 1014.65 1014.57 1014.51 1014.46 1014.40 1014.34 1014.28
1011.02 1011.07 1011.26 1011.59 1012.00 1012.45 1012.86 1013.18 1013.39 1013.49 1013.52 1013.53 1013.57 1013.67 1013.82 1014.02 1014.21 1014.38 1014.48 1014.52 1014.51 1014.50 1014.51 1014.59 1014.74 1014.95 1015.19 1015.42 1015.59 1015.67 1015.66 1015.56 1015.41 1015.23 1015.06 1014.92 1014.81 1014.73 1014.67 1014.62 1014.57 1014.53 1014.49
1010.71 1010.75 1010.94 1011.26 1011.67 1012.11 1012.51 1012.82 1013.04 1013.16 1013.22 1013.26 1013.33 1013.44 1013.60 1013.78 1013.94 1014.07 1014.14 1014.15 1014.13 1014.12 1014.15 1014.26 1014.44 1014.69 1014.98 1015.24 1015.45 1015.57 1015.61 1015.55 1015.45 1015.31 1015.17 1015.05 1014.95 1014.88 1014.82 1014.76 1014.72 1014.69 1014.67
1010.45 1010.50 1010.68 1010.99 1011.39 1011.80 1012.18 1012.48 1012.69 1012.81 1012.88 1012.94 1013.01 1013.13 1013.28 1013.44 1013.59 1013.69 1013.73 1013.74 1013.72 1013.72 1013.78 1013.91 1014.13 1014.41 1014.71 1015.00 1015.23 1015.39 1015.46 1015.46 1015.40 1015.31 1015.21 1015.12 1015.04 1014.98 1014.91 1014.86 1014.82 1014.80 1014.80
1010.30 1010.35 1010.53 1010.83 1011.19 1011.58 1011.92 1012.19 1012.37 1012.48 1012.54 1012.59 1012.67 1012.78 1012.92 1013.07 1013.20 1013.29 1013.34 1013.35 1013.35 1013.37 1013.45 1013.61 1013.83 1014.12 1014.43 1014.71 1014.95 1015.12 1015.22 1015.25 1015.24 1015.20 1015.15 1015.09 1015.04 1014.99 1014.94 1014.88 1014.84 1014.83 1014.85
1010.30 1010.35 1010.51 1010.79 1011.12 1011.45 1011.74 1011.96 1012.11 1012.18 1012.23 1012.27 1012.34 1012.45 1012.58 1012.73 1012.86 1012.95 1013.01 1013.03 1013.06 1013.11 1013.20 1013.36 1013.59 1013.85 1014.13 1014.39 1014.61 1014.78 1014.88 1014.94 1014.96 1014.96 1014.96 1014.94 1014.92 1014.89 1014.85 1014.81 1014.78 1014.77 1014.81
1010.43 1010.47 1010.63 1010.86 1011.14 1011.42 1011.65 1011.81 1011.90 1011.94 1011.95 1011.98 1012.05 1012.15 1012.29 1012.44 1012.58 1012.69 1012.77 1012.82 1012.86 1012.93 1013.03 1013.18 1013.38 1013.60 1013.83 1014.05 1014.23 1014.37 1014.46 1014.53 1014.58 1014.61 1014.65 1014.67 1014.68 1014.68 1014.66 1014.63 1014.62 1014.63 1014.69
1010.67 1010.71 1010.84 1011.03 1011.25 1011.45 1011.61 1011.70 1011.74 1011.73 1011.73 1011.74 1011.80 1011.91 1012.06 1012.23 1012.38 1012.51 1012.61 1012.68 1012.74 1012.81 1012.90 1013.03 1013.18 1013.36 1013.53 1013.69 1013.82 1013.92 1013.99 1014.06 1014.11 1014.17 1014.23 1014.29 1014.34 1014.36 1014.37 1014.38 1014.39 1014.43 1014.51
1010.99 1011.02 1011.11 1011.24 1011.39 1011.51 1011.60 1011.62 1011.61 1011.57 1011.54 1011.55 1011.62 1011.73 1011.89 1012.07 1012.24 1012.39 1012.50 1012.58 1012.64 1012.70 1012.78 1012.87 1012.98 1013.11 1013.22 1013.32 1013.40 1013.46 1013.51 1013.56 1013.62 1013.69 1013.76 1013.84 1013.92 1013.97 1014.02 1014.05 1014.10 1014.17 1014.28
1011.33 1011.34 1011.39 1011.47 1011.54 1011.59 1011.60 1011.57 1011.51 1011.44 1011.40 1011.41 1011.48 1011.60 1011.77 1011.95 1012.13 1012.27 1012.39 1012.46 1012.52 1012.56 1012.62 1012.68 1012.75 1012.83 1012.90 1012.96 1013.00 1013.03 1013.05 1013.08 1013.13 1013.19 1013.27 1013.36 1013.45 1013.53 1013.61 1013.68 1013.76 1013.87 1014.01
1011.65 1011.65 1011.66 1011.68 1011.69 1011.67 1011.62 1011.54 1011.45 1011.36 1011.31 1011.32 1011.39 1011.51 1011.67 1011.85 1012.01 1012.15 1012.24 1012.30 1012.34 1012.37 1012.39 1012.43 1012.48 1012.53 1012.58 1012.61 1012.63 1012.64 1012.64 1012.65 1012.67 1012.71 1012.78 1012.87 1012.96 1013.06 1013.16 1013.26 1013.38 1013.52 1013.70
1011.92 1011.91 1011.89 1011.87 1011.82 1011.75 1011.66 1011.55 1011.44 1011.35 1011.29 1011.29 1011.35 1011.46 1011.60 1011.75 1011.88 1011.99 1012.05 1012.09 1012.10 1012.11 1012.12 1012.14 1012.18 1012.22 1012.26 1012.29 1012.30 1012.29 1012.28 1012.26 1012.25 1012.27 1012.31 1012.37 1012.45 1012.55 1012.66 1012.79 1012.94 1013.11 1013.31
1012.13 1012.12 1012.08 1012.02 1011.94 1011.85 1011.73 1011.61 1011.50 1011.41 1011.35 1011.34 1011.38 1011.45 1011.55 1011.65 1011.74 1011.80 1011.83 1011.83 1011.82 1011.81 1011.81 1011.83 1011.86 1011.91 1011.95 1011.98 1012.00 1011.98 1011.95 1011.91 1011.87 1011.84 1011.83 1011.85 1011.91 1011.99 1012.11 1012.25 1012.42 1012.61 1012.83
1012.27 1012.27 1012.22 1012.15 1012.06 1011.96 1011.85 1011.74 1011.64 1011.55 1011.49 1011.46 1011.47 1011.50 1011.54 1011.59 1011.62 1011.63 1011.62 1011.59 1011.55 1011.52 1011.51 1011.52 1011.56 1011.61 1011.66 1011.69 1011.71 1011.68 1011.63 1011.56 1011.47 1011.39 1011.33 1011.31 1011.32 1011.38 1011.49 1011.63 1011.81 1012.02 1012.24
1012.32 1012.34 1012.31 1012.24 1012.16 1012.08 1012.00 1011.92 1011.84 1011.77 1011.71 1011.66 1011.62 1011.60 1011.58 1011.56 1011.54 1011.50 1011.45 1011.39 1011.34 1011.30 1011.27 1011.27 1011.30 1011.34 1011.38 1011.41 1011.40 1011.37 1011.29 1011.18 1011.05 1010.91 1010.80 1010.72 1010.69 1010.72 1010.80 1010.94 1011.12 1011.33 1011.55
1012.30 1012.34 1012.32 1012.28 1012.23 1012.19 1012.15 1012.11 1012.07 1012.02 1011.96 1011.89 1011.82 1011.74 1011.67 1011.60 1011.52 1011.45 1011.37 1011.29 1011.22 1011.16 1011.12 1011.10 1011.09 1011.10 1011.11 1011.11 1011.07 1011.00 1010.89 1010.74 1010.56 1010.38 1010.22 1010.09 1010.02 1010.01 1010.07 1010.18 1010.35 1010.56 1010.79
1012.18 1012.25 1012.26 1012.25 1012.24 1012.25 1012.27 1012.28 1012.29 1012.27 1012.22 1012.14 1012.04 1011.92 1011.81 1011.69 1011.58 1011.48 1011.39 1011.30 1011.21 1011.13 1011.06 1011.00 1010.95 1010.90 1010.85 1010.79 1010.70 1010.59 1010.43 1010.24 1010.03 1009.81 1009.61 1009.44 1009.33 1009.29 1009.32 1009.41 1009.56 1009.75 1009.97
1011.96 1012.07 1012.12 1012.15 1012.18 1012.24 1012.32 1012.40 1012.46 1012.48 1012.45 1012.37 1012.26 1012.12 1011.97 1011.83 1011.71 1011.60 1011.50 1011.41 1011.31 1011.21 1011.09 1010.98 1010.85 1010.73 1010.59 1010.45 1010.30 1010.12 1009.92 1009.70 1009.46 1009.22 1008.99 1008.80 1008.67 1008.60 1008.59 1008.66 1008.79 1008.95 1009.16
1011.66 1011.81 1011.89 1011.95 1012.04 1012.15 1012.29 1012.44 1012.55 1012.62 1012.62 1012.56 1012.44 1012.30 1012.15 1012.00 1011.88 1011.77 1011.68 1011.59 1011.48 1011.35 1011.19 1011.00 1010.79 1010.57 1010.34 1010.11 1009.87 1009.64 1009.40 1009.15 1008.89 1008.64 1008.41 1008.21 1008.06 1007.96 1007.93 1007.97 1008.06 1008.20 1008.39
1011.28 1011.47 1011.59 1011.69 1011.83 1012.00 1012.20 1012.40 1012.57 1012.69 1012.73 1012.69 1012.59 1012.46 1012.31 1012.18 1012.06 1011.97 1011.89 1011.79 1011.67 1011.51 1011.30 1011.04 1010.74 1010.42 1010.09 1009.76 1009.46 1009.16 1008.88 1008.61 1008.35 1008.11 1007.88 1007.68 1007.52 1007.41 1007.35 1007.35 1007.41 1007.52 1007.67
1010.85 1011.08 1011.25 1011.40 1011.58 1011.80 1012.05 1012.31 1012.54 1012.70 1012.78 1012.77 1012.69 1012.58 1012.45 1012.32 1012.23 1012.15 1012.07 1011.98 1011.85 1011.65 1011.39 1011.06 1010.68 1010.27 1009.85 1009.44 1009.06 1008.72 1008.40 1008.12 1007.86 1007.63 1007.41 1007.22 1007.06 1006.93 1006.85 1006.82 1006.84 1006.90 1007.02
1010.38 1010.67 1010.89 1011.09 1011.32 1011.60 1011.90 1012.21 1012.48 1012.68 1012.79 1012.82 1012.76 1012.66 1012.54 1012.43 1012.34 1012.27 1012.19 1012.10 1011.95 1011.73 1011.43 1011.05 1010.60 1010.12 1009.63 1009.15 1008.71 1008.32 1007.98 1007.68 1007.42 1007.19 1006.98 1006.79 1006.63 1006.49 1006.39 1006.33 1006.31 1006.34 1006.42
1009.90 1010.26 1010.54 1010.80 1011.09 1011.41 1011.76 1012.11 1012.42 1012.65 1012.79 1012.83 1012.79 1012.69 1012.58 1012.47 1012.38 1012.31 1012.23 1012.13 1011.97 1011.73 1011.40 1010.99 1010.50 1009.96 1009.42 1008.89 1008.40 1007.97 1007.59 1007.27 1006.99 1006.75 1006.54 1006.35 1006.18 1006.04 1005.93 1005.85 1005.81 1005.81 1005.87
Thickness
5739 5740 5738 5738 5738 5738 5738 5739 5739 5739 5739 5739 5739 5739 5739 5739 5738 5738 5737 5737 5736 5736 5735 5735 5734 5734 5733 5732 5732 5731 5730 5730 5729 5729 5728 5727 5727 5726 5725 5724 5724 5723 5722
5737 5736 5734 5733 5733 5733 5734 5734 5734 5735 5735 5735 5735 5735 5735 5735 5734 5734 5734 5733 5733 5733 5732 5732 5731 5730 5729 5729 5728 5727 5727 5726 5726 5725 5725 5724 5724 5723 5722 5721 5720 5719 5719
5733 5731 5729 5729 5729 5728 5728 5729 5729 5730 5730 5730 5730 5731 5731 5731 5730 5730 5730 5730 5729 5729 5729 5728 5727 5726 5726 5725 5724 5723 5723 5723 5723 5722 5722 5721 5720 5719 5719 5718 5717 5716 5715
5728 5726 5724 5723 5723 5723 5723 5723 5724 5724 5725 5725 5725 5726 5726 5726 5726 5726 5726 5726 5725 5725 5725 5724 5723 5723 5722 5721 5720 5720 5719 5720 5720 5719 5719 5718 5717 5716 5715 5714 5713 5712 5711
5722 5720 5718 5718 5717 5717 5717 5717 5717 5718 5719 5720 5720 5721 5721 5721 5722 5722 5722 5721 5721 5721 5720 5720 5719 5719 5718 5717 5717 5716 5716 5716 5716 5716 5715 5714 5713 5713 5711 5710 5709 5708 5707
5715 5714 5711 5711 5711 5710 5710 5711 5711 5712 5713 5714 5715 5715 5716 5716 5716 5717 5717 5717 5717 5716 5716 5715 5715 5714 5714 5713 5712 5712 5712 5712 5711 5711 5711 5711 5710 5709 5708 5707 5705 5704 5703
5708 5706 5704 5704 5703 5703 5703 5704 5705 5706 5707 5708 5709 5710 5710 5711 5711 5711 5712 5712 5712 5711 5711 5711 5710 5710 5709 5709 5708 5708 5708 5707 5707 5707 5707 5707 5706 5705 5704 5702 5701 5700 5699
5700 5699 5696 5696 5696 5696 5696 5697 5698 5699 5700 5702 5703 5703 5704 5705 5705 5705 5706 5706 5706 5706 5706 5706 5706 5705 5705 5704 5704 5704 5704 5703 5703 5703 5703 5702 5702 5700 5699 5698 5697 5696 5695
5691 5690 5689 5687 5687 5687 5688 5689 5691 5692 5693 5695 5696 5697 5697 5698 5699 5699 5700 5700 5700 5701 5701 5700 5700 5700 5700 5700 5699 5699 5699 5699 5698 5698 5698 5697 5697 5696 5694 5693 5692 5692 5690
5680 5680 5680 5679 5679 5679 5680 5681 5683 5684 5686 5688 5689 5690 5690 5691 5692 5692 5692 5693 5694 5694 5695 5695 5694 5694 5694 5694 5694 5694 5694 5694 5693 5693 5693 5692 5692 5691 5690 5688 5688 5687 5686
5668 5669 5670 5670 5670 5670 5671 5673 5675 5677 5679 5680 5681 5682 5683 5684 5684 5685 5685 5686 5687 5688 5688 5688 5688 5688 5688 5688 5688 5689 5688 5688 5688 5688 5688 5687 5687 5686 5685 5684 5682 5682 5681
5656 5658 5659 5659 5660 5660 5662 5664 5666 5669 5670 5672 5674 5675 5676 5676 5677 5677 5678 5679 5679 5680 5681 5681 5681 5681 5682 5682 5682 5682 5682 5682 5682 5682 5682 5682 5681 5680 5679 5678 5677 5676 5676
5645 5646 5647 5648 5649 5650 5653 5655 5658 5660 5662 5665 5666 5667 5668 5669 5669 5669 5670 5670 5671 5672 5673 5674 5674 5674 5675 5675 5675 5675 5675 5676 5676 5676 5676 5676 5675 5674 5673 5672 5671 5670 5670
5633 5635 5636 5637 5639 5640 5643 5645 5649 5651 5653 5656 5657 5658 5660 5660 5661 5661 5662 5662 5663 5664 5665 5667 5668 5668 5668 5668 5668 5668 5668 5668 5669 5669 5669 5669 5668 5667 5667 5666 5665 5665 5664
5623 5624 5626 5627 5629 5631 5633 5636 5639 5641 5643 5646 5648 5649 5651 5652 5652 5653 5653 5654 5655 5655 5657 5659 5660 5660 5660 5660 5660 5660 5660 5660 5661 5661 5661 5661 5661 5660 5660 5660 5659 5659 5658
5613 5614 5616 5617 5619 5622 5624 5627 5630 5632 5634 5636 5638 5640 5641 5642 5643 5644 5645 5645 5645 5646 5647 5649 5651 5652 5652 5652 5652 5651 5651 5651 5652 5653 5653 5654 5654 5653 5653 5652 5652 5653 5652
5603 5605 5606 5608 5610 5613 5616 5618 5620 5621 5623 5625 5628 5630 5632 5633 5634 5635 5635 5635 5636 5636 5638 5639 5641 5643 5643 5642 5642 5642 5642 5643 5643 5644 5645 5646 5646 5646 5646 5646 5646 5645 5645
5593 5595 5596 5598 5600 5602 5606 5609 5611 5612 5613 5616 5618 5620 5622 5623 5625 5626 5626 5626 5626 5627 5627 5628 5630 5631 5632 5632 5631 5631 5633 5634 5635 5636 5637 5638 5638 5638 5638 5638 5639 5639 5639
5583 5585 5586 5588 5590 5593 5596 5598 5600 5602 5603 5605 5608 5609 5611 5613 5615 5616 5616 5616 5616 5616 5617 5617 5618 5620 5620 5621 5621 5622 5623 5624 5626 5627 5628 5630 5631 5631 5631 5631 5631 5631 5632
5574 5575 5577 5579 5580 5582 5585 5587 5589 5591 5593 5595 5598 5600 5601 5603 5604 5605 5605 5604 5605 5605 5605 5605 5607 5609 5609 5610 5612 5611 5612 5613 5616 5618 5620 5621 5623 5624 5624 5624 5624 5624 5624
5564 5566 5567 5569 5570 5572 5574 5576 5578 5579 5581 5584 5587 5590 5591 5591 5593 5593 5593 5594 5595 5595 5595 5595 5596 5598 5598 5599 5599 5599 5601 5604 5606 5609 5612 5613 5614 5616 5617 5617 5616 5617 5617
5554 5556 5558 5559 5561 5563 5564 5565 5567 5569 5571 5574 5576 5578 5579 5580 5580 5581 5583 5584 5584 5585 5585 5586 5587 5587 5588 5590 5589 5588 5589 5593 5597 5601 5603 5605 5606 5607 5609 5609 5609 5609 5609
5545 5546 5549 5551 5552 5553 5554 5555 5556 5557 5560 5562 5565 5567 5567 5568 5569 5571 5571 5573 5574 5575 5576 5577 5578 5579 5579 5580 5581 5580 5580 5583 5587 5590 5594 5596 5597 5598 5599 5600 5601 5601 5601
5536 5538 5539 5540 5542 5543 5544 5545 5545 5546 5549 5552 5554 5556 5558 5558 5558 5559 5561 5562 5564 5565 5567 5568 5569 5570 5570 5571 5572 5574 5575 5576 5576 5579 5583 5586 5588 5590 5591 5592 5592 5592 5593
5527 5527 5528 5529 5530 5532 5533 5533 5534 5536 5538 5541 5543 5545 5547 5547 5548 5550 5550 5552 5554 5556 5557 5558 5559 5561 5561 5562 5563 5564 5566 5567 5569 5569 5571 5575 5577 5580 5582 5583 5584 5584 5585
5518 5517 5517 5517 5519 5520 5521 5522 5524 5525 5527 5530 5532 5534 5536 5537 5539 5540 5540 5543 5544 5546 5548 5549 5550 5552 5553 5554 5554 5556 5558 5559 5561 5561 5563 5566 5567 5571 5573 5574 5576 5577 5577